Tracking 32963 objects as of 22-Jan-2026
HD Live streaming from Space Station
objects crossing your sky now

CZ-4 DEB

Track CZ-4 DEB now!
10-day predictions


NORAD ID: 20974
Int'l Code: 1990-081CG
Perigee: 774.3 km
Apogee: 795.6 km
Inclination: 98.6 °
Period: 100.4 minutes
Semi major axis: 7155 km
RCS: 0.0086 m2 (small)
Launch date: September 3, 1990
Source: People's Republic of China (PRC)
Launch site: Taiyaun Space Center, China (TSC)

Note: This is SATELLITE DEBRIS
Your satellite tracking list
Your tracking list is empty




NASA's NSSDC Master Catalog

Two Line Element Set (TLE):
1 20974U 90081CG  26020.74208956  .00002895  00000-0  10471-2 0  9990
2 20974  98.5572  21.0472 0014897  57.2480 120.4451 14.34183072828616
Source of the keplerian elements: AFSPC